Location: Unspecified
(0.0000°N, 0.0000°E)
Time: 05:38:21
(UTC+00:00)

N. Korean satellite - Pass Details

Date: 04 August 2020
Orbit: 453 x 506 km, 97.2° (Epoch: 13 August)

Event Time Altitude Azimuth Distance (km) Brightness Sun altitude
Rises 04:39:55 0° 32° (NNE) 2,515 11.0 -20.6°
Reaches altitude 10° 04:42:14 10° 46° (NE) 1,650 10.2 -20.0°
Maximum altitude 04:45:08 24° 101° (ESE) 1,049 8.9 -19.3°
Drops below altitude 10° 04:48:05 10° 156° (SSE) 1,682 9.4 -18.6°
Sets 04:50:27 0° 170° (S) 2,576 10.2 -18.1°
